EA1M Weather Reports


Display with metric or nautical units.
time (UTC)temp
F
wind
direction
speed
MPH
gust
MPH
rain 1hr
in
rain 24hr
in
rain mn
in
humidity
%
barometer
mb
20260509121042 66 12 2.0 3.0 0.00 0.00 0.00 67 1005.0
20260509120107 68 40 2.0 3.0 0.00 0.00 0.00 63 1005.1
20260509115110 65 356 2.0 6.0 0.00 0.00 0.00 68 1005.2
20260509114111 65 342 3.0 7.0 0.00 0.00 0.00 68 1005.3
20260509113054 65 33 3.0 6.0 0.00 0.00 0.00 66 1005.4
20260509112118 67 23 4.0 8.0 0.00 0.00 0.00 64 1005.4
20260509111038 65 17 2.0 7.0 0.00 0.00 0.00 67 1005.5
20260509105022 63 13 4.0 7.0 0.00 0.00 0.00 72 1005.9
20260509104046 62 5 4.0 9.0 0.00 0.00 0.00 73 1006.1
20260509103110 63 16 4.0 8.0 0.00 0.00 0.00 72 1006.2
20260509102030 65 25 5.0 7.0 0.00 0.00 0.00 66 1006.2
20260509101054 66 350 4.0 7.0 0.00 0.00 0.00 64 1006.2
20260509100119 67 349 3.0 6.0 0.00 0.00 0.00 61 1006.2
20260509095039 67 62 2.0 6.0 0.00 0.00 0.00 58 1006.3
20260509094102 67 55 1.0 2.0 0.00 0.00 0.00 59 1006.2
20260509093022 67 76 2.0 3.0 0.00 0.00 0.00 59 1006.6
20260509092046 64 106 3.0 8.0 0.00 0.00 0.00 65 1006.7
20260509091110 63 91 1.0 3.0 0.00 0.00 0.00 68 1006.6
20260509090031 62 78 1.0 3.0 0.00 0.00 0.00 71 1006.7
20260509085053 60 130 2.0 4.0 0.00 0.00 0.00 73 1006.6
20260509084139 60 112 2.0 4.0 0.00 0.00 0.00 74 1006.6
20260509083039 59 107 1.0 4.0 0.00 0.00 0.00 75 1006.5
20260509082122 58 97 2.0 3.0 0.00 0.00 0.00 76 1006.5
20260509081021 58 92 2.0 3.0 0.00 0.00 0.00 76 1006.4
20260509080126 57 77 1.0 2.0 0.00 0.00 0.00 78 1006.5
20260509075110 56 79 1.0 2.0 0.00 0.00 0.00 81 1006.7
20260509074030 55 86 2.0 3.0 0.00 0.00 0.00 83 1006.8
20260509073054 54 87 1.0 2.0 0.00 0.00 0.00 86 1006.9
20260509072118 53 113 2.0 3.0 0.00 0.00 0.00 88 1006.8
20260509071037 53 87 1.0 2.0 0.00 0.00 0.00 89 1006.7
20260509065043 52 81 1.0 2.0 0.00 0.00 0.00 90 1006.6
20260509064046 52 73 1.0 1.0 0.00 0.00 0.00 90 1006.7
20260509063111 52 82 0.0 2.0 0.00 0.00 0.00 89 1006.7
20260509062030 52 92 1.0 2.0 0.00 0.00 0.00 88 1006.6
20260509061054 52 49 0.0 1.0 0.00 0.00 0.00 88 1006.7
20260509060138 52 64 0.0 1.0 0.00 0.00 0.00 88 1006.7
20260509055038 52 0.0 0.0 0.00 0.00 0.00 89 1006.6
20260509054123 51 65 0.0 1.0 0.00 0.00 0.00 90 1006.5
20260509053024 51 69 0.0 1.0 0.00 0.00 0.00 90 1006.6
20260509052046 51 76 1.0 2.0 0.00 0.00 0.00 90 1006.4
20260509051130 51 73 1.0 1.0 0.00 0.00 0.00 90 1006.4
20260509050029 51 38 0.0 1.0 0.00 0.00 0.00 90 1006.3
20260509045053 51 0.0 2.0 0.00 0.00 0.00 90 1006.5
20260509044120 51 78 1.0 2.0 0.00 0.00 0.00 90 1006.3
20260509043041 51 72 0.0 2.0 0.00 0.00 0.00 90 1006.1
20260509042103 51 72 0.0 1.0 0.00 0.00 0.00 91 1006.3
20260509041024 51 0.0 2.0 0.00 0.00 0.00 91 1006.1
20260509040046 51 127 2.0 3.0 0.00 0.00 0.00 91 1006.7
20260509035109 51 105 3.0 4.0 0.00 0.00 0.00 92 1006.5
20260509034031 50 90 1.0 2.0 0.00 0.00 0.00 92 1006.5
20260509033053 50 92 2.0 2.0 0.00 0.00 0.00 92 1006.6
20260509032118 50 79 1.0 2.0 0.00 0.00 0.00 92 1006.6
20260509031038 50 82 1.0 2.0 0.00 0.00 0.00 91 1006.6
20260509025042 50 120 2.0 4.0 0.00 0.00 0.00 91 1006.7
20260509024106 50 101 2.0 4.0 0.00 0.00 0.00 92 1006.6
20260509023129 50 100 1.0 4.0 0.00 0.00 0.00 92 1006.8
20260509022051 50 83 2.0 3.0 0.00 0.00 0.00 92 1006.8
20260509021054 50 115 2.0 3.0 0.00 0.00 0.00 91 1007.1
20260509020118 50 84 1.0 3.0 0.00 0.00 0.00 91 1007.0
20260509015038 50 89 2.0 3.0 0.00 0.00 0.00 91 1007.2
20260509014122 51 83 2.0 3.0 0.00 0.00 0.00 90 1007.3
20260509013023 51 81 1.0 2.0 0.00 0.00 0.00 91 1007.3
20260509012048 51 80 1.0 2.0 0.00 0.00 0.00 91 1007.5
20260509011110 50 79 0.0 2.0 0.00 0.00 0.00 91 1007.7
20260509010030 51 92 1.0 3.0 0.00 0.00 0.00 90 1007.8
20260509005054 51 74 0.0 1.0 0.00 0.00 0.00 90 1007.9
20260509004117 51 0.0 1.0 0.00 0.00 0.00 90 1007.9
20260509003038 51 92 2.0 4.0 0.00 0.00 0.00 90 1008.1
20260509002103 52 96 2.0 6.0 0.00 0.00 0.00 90 1008.3
20260509001022 52 105 3.0 6.0 0.00 0.00 0.00 90 1008.3
20260509000106 52 109 3.0 6.0 0.00 0.00 0.00 90 1008.4
20260508235110 52 108 2.0 3.0 0.00 0.00 0.00 90 1008.4
20260508234030 52 102 2.0 4.0 0.00 0.00 0.00 90 1008.5
20260508233053 53 86 2.0 3.0 0.00 0.00 0.00 90 1008.6
20260508232117 53 108 3.0 4.0 0.00 0.00 0.00 89 1008.7
20260508231058 54 77 1.0 2.0 0.00 0.00 0.00 88 1008.7
20260508225021 53 73 1.0 1.0 0.00 0.00 0.00 88 1009.0
20260508224046 53 61 0.0 1.0 0.00 0.00 0.00 88 1009.1
20260508223109 54 91 2.0 4.0 0.00 0.00 0.00 87 1009.4
20260508222030 55 109 2.0 4.0 0.00 0.00 0.00 84 1009.3
20260508221055 55 90 2.0 3.0 0.00 0.00 0.00 81 1009.4
20260508220118 55 68 1.0 2.0 0.00 0.00 0.00 84 1009.5
20260508215038 55 84 2.0 3.0 0.00 0.00 0.00 82 1009.7
20260508214102 56 72 1.0 3.0 0.00 0.00 0.00 81 1009.6
20260508213022 55 96 2.0 4.0 0.00 0.00 0.00 82 1009.9
20260508212046 55 95 3.0 6.0 0.00 0.00 0.00 82 1009.8
20260508211110 56 110 2.0 3.0 0.00 0.00 0.00 82 1009.8
20260508210050 57 95 2.0 3.0 0.00 0.00 0.00 79 1009.9
20260508205054 58 108 2.0 6.0 0.00 0.00 0.00 75 1009.8
20260508204118 57 66 2.0 7.0 0.00 0.00 0.00 76 1009.8
20260508203038 57 48 0.0 3.0 0.00 0.00 0.00 76 1009.7
20260508202102 58 52 1.0 2.0 0.00 0.00 0.00 76 1009.6
20260508201103 58 42 0.0 2.0 0.00 0.00 0.00 75 1009.6
20260508200046 59 0.0 1.0 0.00 0.00 0.00 73 1009.5
20260508195110 59 0.0 1.0 0.00 0.00 0.00 71 1009.5
20260508194030 60 0.0 0.0 0.00 0.00 0.00 69 1009.4
20260508193053 60 67 0.0 2.0 0.00 0.00 0.00 69 1009.5
20260508192117 60 91 2.0 6.0 0.00 0.00 0.00 67 1009.6
20260508191038 60 136 4.0 7.0 0.00 0.00 0.00 67 1009.6
20260508185022 61 89 1.0 6.0 0.00 0.00 0.00 69 1009.4
20260508184206 61 100 2.0 4.0 0.00 0.00 0.00 68 1009.4
20260508183111 61 110 3.0 6.0 0.00 0.00 0.00 67 1009.4
20260508182030 61 163 5.0 9.0 0.00 0.00 0.00 69 1009.2
20260508181054 61 138 3.0 6.0 0.00 0.00 0.00 70 1009.1
20260508180117 61 125 3.0 6.0 0.00 0.00 0.00 71 1009.0
20260508175037 60 127 3.0 6.0 0.00 0.00 0.00 73 1009.1
20260508174103 60 96 2.0 6.0 0.00 0.00 0.00 75 1009.2
20260508173022 60 42 1.0 2.0 0.00 0.00 0.00 77 1009.1
20260508172046 60 30 1.0 3.0 0.00 0.00 0.00 77 1009.1
20260508171109 60 25 3.0 4.0 0.00 0.00 0.00 77 1009.1
20260508170051 60 337 2.0 6.0 0.00 0.00 0.00 78 1009.1
20260508165054 60 7 1.0 6.0 0.00 0.00 0.00 77 1009.3
20260508164118 60 3 2.0 6.0 0.00 0.00 0.00 77 1009.1
20260508163037 60 19 3.0 7.0 0.00 0.00 0.00 77 1009.3
20260508162101 61 360 4.0 8.0 0.00 0.00 0.00 76 1009.3
20260508161042 60 28 2.0 4.0 0.00 0.00 0.00 75 1009.4
20260508160045 60 275 3.0 6.0 0.00 0.00 0.00 73 1009.4
20260508155109 62 61 1.0 3.0 0.00 0.00 0.00 71 1009.3
20260508154031 61 24 1.0 3.0 0.00 0.00 0.00 74 1009.2
20260508153115 61 36 2.0 3.0 0.00 0.00 0.00 74 1009.2
20260508152119 61 65 1.0 3.0 0.00 0.00 0.00 75 1009.3
20260508151038 62 48 2.0 4.0 0.00 0.00 0.00 74 1009.4
20260508150204 61 24 2.0 4.0 0.00 0.00 0.00 76 1009.5
20260508145043 61 42 2.0 4.0 0.00 0.00 0.00 77 1009.6
20260508144045 60 29 1.0 2.0 0.00 0.00 0.00 79 1009.7
20260508143110 59 38 1.0 3.0 0.00 0.00 0.00 79 1009.8
20260508142030 60 3 1.0 4.0 0.00 0.00 0.00 79 1009.8
20260508141053 59 36 2.0 4.0 0.00 0.00 0.00 81 1009.9
20260508140118 59 9 2.0 3.0 0.00 0.00 0.00 79 1010.0
20260508135057 59 52 0.0 2.0 0.00 0.00 0.00 75 1010.0
20260508134101 59 90 1.0 2.0 0.00 0.00 0.00 76 1010.0
20260508133022 59 108 2.0 6.0 0.00 0.00 0.00 76 1010.1
20260508132046 60 234 3.0 8.0 0.00 0.00 0.00 75 1009.9
20260508131109 61 265 3.0 7.0 0.00 0.00 0.00 70 1009.8
20260508130049 61 326 4.0 9.0 0.00 0.00 0.00 66 1009.7
20260508125053 61 330 4.0 8.0 0.00 0.00 0.00 70 1009.5
20260508124117 61 318 6.0 14.0 0.00 0.00 0.00 70 1009.5
20260508123059 63 134 4.0 9.0 0.00 0.00 0.00 55 1009.4
20260508122102 63 165 6.0 11.0 0.00 0.00 0.00 56 1009.4